Date,TemperatureHighF,TemperatureAvgF,TemperatureLowF,DewpointHighF,DewpointAvgF,DewpointLowF,HumidityHigh,HumidityAvg,HumidityLow,PressureMaxIn,PressureMinIn,WindSpeedMaxMPH,WindSpeedAvgMPH,GustSpeedMaxMPH,PrecipitationSumIn
2013-1-1,31.0,14.9,2.9,23.0,9.6,-0.7,89,80,66,30.46,30.35,6,2,6,0.01
2013-1-2,35.5,22.4,8.2,28.3,17.1,3.6,91,80,66,30.48,30.32,8,1,10,0.07
2013-1-3,31.9,18.2,2.9,20.9,12.5,-0.6,91,79,54,30.58,30.46,7,1,8,0.03
2013-1-4,39.3,18.7,6.0,23.1,10.0,1.7,86,70,41,30.47,30.23,8,2,10,0.04
2013-1-5,42.8,24.4,9.4,28.8,16.8,4.2,90,74,56,30.49,30.19,6,1,9,0.02
2013-1-6,40.9,18.2,7.1,28.0,12.7,3.0,87,79,59,30.49,30.39,7,2,9,0.00
2013-1-7,22.3,22.2,22.2,19.6,19.5,19.5,89,89,89,30.02,30.02,0,0,0,0.00
2013-1-8,50.7,37.9,24.7,33.8,28.5,22.2,90,71,51,30.37,30.03,1,0,3,0.00
2013-1-9,50.6,34.2,20.1,35.3,27.2,17.0,90,77,52,30.52,30.32,8,3,9,0.00
2013-1-10,38.1,35.6,33.5,36.3,33.1,28.3,97,91,80,30.33,29.60,12,4,18,0.00
2013-1-11,55.9,36.6,20.5,38.0,28.9,13.6,97,78,26,29.95,29.31,24,7,30,0.01
2013-1-12,25.2,17.6,10.5,13.2,9.0,5.5,81,69,56,30.34,29.95,4,1,10,0.00
2013-1-13,27.1,13.1,3.4,12.6,5.6,-0.7,85,73,48,30.51,30.33,3,0,8,0.00
2013-1-14,27.6,14.9,1.6,14.9,7.3,-2.4,86,73,52,30.60,30.42,8,2,12,0.00
2013-1-16,52.5,39.8,27.8,28.3,25.8,22.7,85,60,38,30.41,30.19,3,1,6,0.00
2013-1-17,54.7,35.9,20.4,27.6,21.8,16.3,88,62,24,30.58,30.33,8,3,8,0.00
2013-1-18,63.2,38.7,23.1,29.8,22.3,18.1,84,59,18,30.33,30.07,9,2,11,0.00
2013-1-19,59.4,38.1,23.8,24.1,20.3,17.4,83,54,21,30.32,30.07,6,1,7,0.00
2013-1-20,43.3,29.2,19.6,29.7,22.9,15.4,91,78,53,30.50,30.23,10,2,13,0.00
2013-1-21,46.3,26.2,12.7,26.8,19.0,9.6,92,77,41,30.48,30.26,11,3,13,0.00
2013-1-22,55.8,28.5,14.8,32.7,19.2,12.4,95,73,24,30.31,30.23,9,2,10,0.00
2013-1-23,51.2,34.8,18.7,24.6,20.1,14.1,85,58,28,30.30,30.20,11,3,14,0.00
2013-1-25,35.8,34.2,32.5,26.3,25.4,24.1,73,70,67,30.22,30.21,5,2,14,0.00
2013-1-26,33.1,27.5,23.1,26.5,22.7,19.2,89,82,71,30.21,30.10,7,2,11,0.00
2013-1-31,35.7,27.9,20.4,22.2,16.7,11.7,85,64,44,30.41,30.27,8,3,13,0.00
2013-2-1,51.7,32.8,19.2,35.0,23.8,16.1,92,73,37,30.38,30.12,14,5,18,0.00
2013-2-2,57.5,36.5,24.7,32.1,24.0,18.0,92,66,25,30.38,30.27,6,1,10,0.00
2013-2-3,51.1,33.3,16.8,28.0,21.0,13.3,88,64,33,30.37,29.93,12,2,19,0.00
2013-2-4,58.1,40.2,22.4,27.4,21.3,15.6,84,52,21,30.06,29.88,8,2,11,0.00
2013-2-5,57.9,42.5,30.5,24.8,22.7,20.7,70,48,26,30.04,30.01,6,3,6,0.00
2013-2-6,65.4,44.1,29.4,38.0,26.6,22.0,76,54,22,30.01,29.77,9,4,11,0.00
2013-2-7,57.8,40.1,19.0,34.2,22.9,12.0,86,55,22,30.21,29.95,6,1,11,0.00
2013-2-8,54.4,38.8,18.1,26.3,21.7,11.6,79,53,31,30.23,29.92,18,9,23,0.00
2013-2-9,57.2,42.3,29.9,41.4,26.5,16.7,94,56,34,29.92,29.39,25,10,27,0.05
2013-2-10,40.5,31.4,23.4,31.6,26.5,19.8,94,82,64,30.16,29.38,7,4,21,0.11
2013-2-11,37.9,27.4,18.9,21.6,17.6,13.0,86,68,39,30.31,30.17,7,1,11,0.02
2013-2-12,48.9,31.6,18.3,23.3,17.0,11.5,88,61,22,30.23,30.08,4,1,5,0.00
2013-2-13,56.3,34.9,19.4,23.7,19.2,14.3,82,58,26,30.12,29.95,8,2,9,0.00
2013-2-14,30.1,28.8,26.9,24.4,23.1,21.1,83,79,72,30.10,30.06,3,0,7,0.00
2013-2-16,61.8,42.7,24.3,27.8,23.2,18.7,81,51,25,30.27,30.05,12,2,15,0.00
2013-2-17,66.5,41.2,19.8,31.8,19.2,8.9,89,51,11,30.05,29.51,8,3,15,0.00
2013-2-18,43.4,31.7,19.3,28.0,22.8,12.5,88,70,42,30.21,29.57,7,2,17,0.00
2013-2-19,42.6,27.0,11.7,21.4,16.2,8.5,90,67,38,30.37,30.19,13,5,15,0.00
2013-2-20,25.1,23.2,21.2,22.8,18.1,9.6,92,82,58,30.19,29.97,18,11,20,0.00
2013-2-21,22.4,16.9,12.0,20.4,14.3,9.1,92,89,87,30.11,29.95,18,5,22,0.00
2013-2-22,34.8,14.6,-0.8,27.0,10.2,-4.2,90,83,70,30.25,30.11,6,1,22,0.19
2013-2-23,38.0,23.5,3.0,30.8,19.3,-0.5,93,84,73,30.19,29.89,9,4,10,0.00
2013-2-24,31.2,25.5,18.2,29.5,23.8,16.3,94,93,90,30.18,29.87,6,3,11,0.00
2013-2-25,35.4,28.1,14.7,28.9,24.8,12.0,95,88,73,30.19,30.01,6,2,10,0.07
2013-2-26,41.6,22.5,8.6,25.8,16.0,5.5,92,77,48,30.13,29.95,5,1,10,0.00
2013-2-27,38.2,29.2,18.1,28.2,23.5,15.4,91,79,64,30.33,30.13,4,2,7,0.00
2013-2-28,44.6,30.0,18.6,29.4,22.0,14.0,93,73,53,30.40,30.29,3,0,7,0.00
2013-3-1,42.4,31.5,22.0,31.5,25.9,19.2,94,80,61,30.42,30.29,4,1,7,0.00
2013-3-2,58.4,39.4,19.7,42.3,31.8,17.2,94,76,50,30.42,30.11,5,0,6,0.00
2013-3-3,63.9,42.7,27.6,44.5,34.1,24.8,92,75,37,30.11,29.63,5,1,5,0.00
2013-3-4,44.3,36.0,26.5,35.1,29.3,16.7,93,77,49,30.27,29.65,7,2,13,0.03
2013-3-5,46.0,31.3,21.8,21.1,17.4,13.8,77,59,30,30.48,30.27,6,2,7,0.01
2013-3-6,54.8,34.6,22.6,30.2,23.8,17.8,83,67,35,30.42,30.01,16,7,20,0.00
2013-3-7,55.7,36.9,23.8,34.1,28.0,20.7,92,73,43,30.07,29.97,12,3,15,0.00
2013-3-8,65.4,42.7,27.0,50.7,36.9,24.7,94,82,46,30.05,29.65,13,4,18,0.00
2013-3-9,53.8,40.4,30.9,50.9,38.2,29.1,96,92,84,29.90,29.52,10,4,15,0.00
2013-3-10,31.3,25.5,14.5,30.0,21.3,10.3,96,84,66,30.20,29.90,6,3,15,0.14
2013-3-11,54.6,32.6,12.2,37.5,23.8,9.2,91,72,46,30.20,30.04,7,1,15,0.00
2013-3-12,50.0,37.8,24.0,31.6,25.1,18.5,92,64,32,30.39,30.17,3,1,8,0.00
2013-3-13,70.6,45.4,24.1,35.7,27.7,19.2,87,54,24,30.39,30.18,8,3,11,0.00
2013-3-14,48.3,41.8,35.9,35.5,31.6,29.1,79,67,59,30.20,30.16,7,3,7,0.00
2013-3-15,52.8,49.5,46.0,37.0,32.5,30.6,56,52,48,29.78,29.73,4,1,5,0.00
2013-3-16,51.3,40.0,31.1,38.5,30.9,26.3,84,70,57,30.04,29.78,13,4,17,0.00
2013-3-17,45.6,33.2,30.3,36.4,29.9,26.8,95,88,55,30.02,29.74,17,6,21,0.00
2013-3-18,56.6,40.1,18.7,35.0,19.3,8.0,92,51,15,30.03,29.80,8,2,10,0.00
2013-3-19,52.7,36.9,21.5,22.2,16.5,12.4,73,46,21,30.39,30.03,10,3,14,0.00
2013-3-20,50.1,34.3,12.5,25.6,17.2,8.8,88,54,27,30.47,29.91,18,4,21,0.00
2013-3-21,49.3,38.3,24.5,27.5,23.7,18.1,78,57,40,29.93,29.67,18,6,21,0.00
2013-3-22,55.0,44.0,24.4,31.9,25.7,19.7,92,52,27,29.94,29.81,15,4,19,0.00
2013-3-23,33.2,28.3,23.2,31.4,26.6,21.0,95,94,91,30.26,29.90,16,3,20,0.01
2013-3-24,33.9,20.5,4.2,27.0,16.2,0.9,91,83,69,30.42,30.26,5,1,6,0.15
2013-3-25,30.3,16.5,5.8,20.8,10.6,2.0,86,78,64,30.56,30.42,2,1,6,0.02
2013-3-26,47.6,24.6,-0.7,36.0,17.1,-4.9,87,74,49,30.55,30.18,9,2,10,0.00
2013-3-27,57.5,40.5,25.5,40.3,31.5,22.2,91,72,44,30.20,30.11,7,1,8,0.00
2013-3-28,64.9,46.4,30.2,38.9,33.2,26.0,89,64,32,30.21,30.06,7,3,13,0.00
2013-3-29,69.0,51.9,33.4,49.7,40.5,30.9,94,69,38,30.14,29.92,10,4,16,0.00
2013-3-30,70.7,54.1,39.7,47.5,40.6,33.9,95,66,27,30.09,29.89,8,2,9,0.19
2013-3-31,69.4,49.9,32.3,45.7,36.2,30.4,96,66,24,30.10,29.88,10,2,15,0.01
2013-4-1,48.4,37.1,27.8,32.4,27.8,25.4,93,71,45,30.29,30.03,10,5,16,0.00
2013-4-2,42.6,38.1,33.9,30.0,26.3,22.3,81,63,45,30.31,30.24,6,2,15,0.00
2013-4-3,48.4,44.1,34.2,32.3,30.1,24.3,83,59,43,30.30,30.20,11,6,20,0.00
2013-4-4,68.4,53.9,23.9,39.2,32.5,21.3,94,50,24,30.20,30.07,10,3,11,0.00
2013-4-5,77.9,62.1,42.7,40.0,32.1,23.7,71,36,14,30.08,29.55,17,7,21,0.00
2013-4-6,74.9,60.2,44.7,40.6,33.2,23.2,66,40,16,29.78,29.54,6,2,10,0.00
2013-4-7,77.0,60.1,42.7,42.5,35.9,27.3,83,44,18,29.78,29.54,15,4,20,0.00
2013-4-8,71.6,55.8,34.8,59.7,47.0,31.8,93,74,49,29.62,29.33,18,6,21,0.00
2013-4-9,64.1,28.4,17.8,59.7,25.2,14.2,92,88,71,30.23,29.32,16,5,24,0.00
2013-4-10,19.0,18.6,18.0,15.3,14.9,14.5,86,85,85,30.27,30.20,5,3,24,0.00
2013-4-11,53.1,44.5,26.9,28.2,23.6,20.0,76,45,28,29.95,29.83,4,2,15,0.00
2013-4-12,51.4,31.3,22.9,35.2,25.7,19.3,90,80,51,30.00,29.95,5,1,6,0.00
2013-4-15,38.5,37.2,36.1,25.0,24.3,23.8,61,59,57,30.05,29.99,9,7,14,0.00
2013-4-16,45.4,38.4,32.6,27.7,25.7,23.8,79,61,48,30.18,30.02,16,9,23,0.00
2013-4-17,37.8,33.8,26.9,31.4,29.1,25.0,93,84,64,30.10,29.92,7,5,14,0.01
2013-4-18,35.0,29.2,24.7,27.0,24.2,19.8,93,82,65,30.24,30.04,6,2,12,0.13
2013-4-19,63.6,41.9,21.2,35.0,25.2,17.2,86,57,23,30.23,30.03,8,2,12,0.00
2013-4-20,41.8,35.6,31.7,31.0,29.2,27.3,85,77,65,30.08,29.98,11,5,14,0.00
2013-4-22,51.1,38.6,27.2,48.1,36.1,25.7,96,91,80,30.33,29.82,9,5,14,0.02
2013-4-23,40.8,30.3,23.8,31.5,25.7,22.1,94,84,59,30.39,30.27,8,2,12,0.18
2013-4-24,53.8,31.5,21.2,32.6,22.9,17.1,88,73,35,30.34,30.28,8,3,13,0.00
2013-4-25,69.0,61.1,44.9,41.2,27.7,20.0,56,29,19,30.20,29.93,18,11,25,0.00
2013-4-26,76.3,59.5,44.4,48.5,33.2,22.5,88,42,14,30.11,29.92,16,5,23,0.00
2013-4-27,82.5,58.9,33.2,48.9,36.7,17.0,97,56,9,30.12,29.85,12,3,23,0.01
2013-4-28,90.4,67.2,39.1,43.5,28.6,8.8,76,35,5,29.88,29.60,14,4,18,0.00
2013-4-29,82.9,65.0,45.3,43.4,37.7,32.8,66,40,17,29.73,29.43,10,4,15,0.00
2013-4-30,70.6,60.3,41.4,43.3,40.0,31.4,78,48,36,29.73,29.39,14,6,22,0.00
2013-5-1,57.4,37.9,30.8,36.9,33.0,24.3,95,85,31,30.60,29.72,14,7,20,0.14
2013-5-2,52.2,37.9,29.0,38.5,30.2,24.5,96,77,36,30.77,30.52,5,1,20,0.32
2013-5-3,61.0,42.8,22.9,37.0,26.1,20.6,93,59,23,30.52,30.12,5,2,11,0.00
2013-5-4,61.2,43.1,22.5,29.1,21.5,14.6,89,50,16,30.25,30.12,7,3,15,0.00
2013-5-5,66.4,46.6,24.3,29.7,22.6,16.7,85,47,16,30.29,30.13,5,2,8,0.00
2013-5-6,71.3,52.9,29.1,44.8,34.4,23.6,90,54,25,30.16,29.94,11,4,18,0.00
2013-5-7,76.6,59.6,50.8,53.3,47.9,40.6,87,68,33,29.99,29.70,16,7,22,0.00
2013-5-8,75.3,59.9,49.9,54.8,49.4,43.2,96,72,32,29.91,29.78,10,4,16,0.06
2013-5-9,66.7,55.3,43.3,53.6,48.5,40.6,91,79,51,30.08,29.86,7,2,14,0.03
2013-5-10,76.2,55.2,37.9,52.7,44.1,36.6,97,72,30,30.14,30.04,7,1,10,0.02
2013-5-11,70.3,56.6,44.5,45.9,37.2,27.8,92,54,22,30.32,30.13,7,2,10,0.01
2013-5-12,83.6,63.9,46.6,48.9,40.5,31.3,73,46,20,30.23,29.94,12,4,14,0.00
2013-5-13,93.5,71.4,45.3,51.2,41.3,32.0,84,42,12,29.97,29.81,9,3,15,0.00
2013-5-14,66.4,58.0,49.3,43.9,41.7,40.0,73,56,42,29.80,29.73,5,2,8,0.00
2013-5-15,84.7,77.0,62.1,51.5,48.9,45.2,62,39,27,29.68,29.59,11,6,17,0.00
2013-5-16,83.4,68.4,54.3,56.9,51.8,47.0,83,59,30,29.73,29.61,11,5,17,0.00
2013-5-17,76.8,76.7,76.6,62.3,62.2,62.1,61,61,61,29.64,29.64,13,13,13,0.00
2013-5-19,77.6,68.8,53.0,54.2,48.7,43.1,76,50,37,29.65,29.54,5,2,14,0.00
2013-5-20,73.3,58.8,47.4,50.6,44.6,40.9,93,63,33,29.81,29.65,5,3,15,0.00
2013-5-21,51.5,50.3,49.4,43.8,42.5,41.4,79,75,72,29.82,29.78,3,2,14,0.00
2013-5-22,46.6,41.8,39.3,42.3,39.0,37.0,93,90,85,29.87,29.84,2,0,2,0.00
2013-6-13,90.5,80.1,69.3,62.6,59.7,49.9,70,52,30,29.89,29.75,15,8,18,0.00
2013-6-14,99.8,77.2,63.5,66.3,58.2,46.4,94,57,18,29.83,29.61,15,5,18,0.10
2013-6-15,91.3,75.1,61.2,65.7,60.0,54.5,86,62,34,29.88,29.69,8,3,12,0.01
2013-6-16,86.9,70.2,54.4,62.8,57.5,52.0,95,68,32,29.93,29.68,16,4,22,0.95
2013-6-17,82.0,68.2,54.7,63.9,59.5,53.6,97,76,44,30.00,29.87,7,2,13,0.01
2013-6-18,86.5,72.1,58.9,63.4,59.1,56.2,95,67,37,29.99,29.77,14,4,15,0.17
2013-6-19,83.2,71.6,60.8,66.8,62.2,58.5,94,74,47,29.90,29.65,16,7,26,0.09
2013-6-20,94.7,79.0,64.9,67.6,62.3,58.3,87,61,31,29.69,29.52,14,8,20,0.00
2013-6-21,97.5,83.5,70.9,67.0,56.6,48.0,68,42,19,29.63,29.47,13,8,21,0.00
2013-6-22,96.0,81.1,64.9,65.1,61.7,49.7,85,54,30,29.59,29.45,16,7,21,0.02
2013-6-23,86.0,76.4,65.0,65.2,60.2,51.3,75,58,45,29.71,29.48,13,5,21,0.00
2013-6-24,96.1,79.7,62.3,65.0,56.3,35.8,81,51,13,29.72,29.47,14,6,18,0.00
2013-6-25,98.0,82.1,66.3,65.9,57.0,45.2,71,47,18,29.67,29.43,12,4,17,0.00
2013-6-26,100.1,80.4,56.9,62.9,52.7,42.8,82,44,15,29.80,29.67,6,2,15,0.00
2013-6-27,99.8,84.8,67.5,67.0,62.4,57.2,83,50,26,29.93,29.73,9,4,13,0.00
2013-6-28,97.0,78.6,57.5,68.1,57.3,49.9,95,56,24,29.98,29.85,10,2,13,0.00
2013-6-29,92.5,75.5,59.7,58.7,54.2,49.2,81,51,27,29.97,29.83,9,2,11,0.00
2013-6-30,83.3,68.6,50.5,55.0,49.8,45.3,90,55,28,30.06,29.93,7,2,13,0.00
2013-7-1,80.9,65.9,46.6,53.7,46.6,40.8,93,55,25,30.16,30.06,8,2,11,0.00
2013-7-2,82.7,65.1,42.5,49.9,41.4,36.5,89,49,20,30.16,30.02,5,2,9,0.00
2013-7-3,87.3,71.9,50.4,47.9,42.7,37.4,70,39,18,30.03,29.77,12,4,15,0.00
2013-7-4,90.7,75.7,59.4,53.5,47.8,42.9,68,40,20,29.82,29.67,11,5,14,0.00
2013-7-5,97.1,81.1,66.7,55.8,51.5,48.1,54,38,20,29.72,29.52,14,6,19,0.00
2013-7-6,102.9,84.3,69.5,60.0,54.9,48.5,65,39,19,29.64,29.52,13,4,19,0.00
2013-7-7,98.9,81.7,64.0,70.6,59.6,53.1,80,50,23,29.81,29.63,12,3,19,0.04
2013-7-8,102.0,81.3,63.7,67.5,62.4,54.2,95,59,21,29.85,29.67,10,3,16,0.03
2013-7-9,101.6,82.5,65.6,68.0,60.9,56.7,77,51,25,29.85,29.71,11,2,11,0.00
2013-7-10,89.5,79.3,66.8,66.3,63.5,58.6,80,60,44,29.96,29.83,17,7,24,0.00
2013-7-11,76.5,73.5,70.9,66.6,64.2,59.4,81,73,65,29.90,29.86,12,4,21,0.00
2013-7-13,103.6,93.0,81.7,58.2,55.3,52.1,44,29,19,29.68,29.60,11,6,20,0.00
2013-7-14,87.6,75.5,67.5,69.6,63.6,56.0,88,68,41,29.98,29.68,14,2,20,0.16
2013-7-15,83.7,70.3,53.9,64.4,56.3,49.2,97,66,31,30.08,29.98,8,2,12,0.01
2013-7-16,80.7,70.0,63.4,64.3,61.0,58.4,92,75,49,30.16,30.02,18,7,21,0.00
2013-7-17,87.1,72.7,55.2,64.1,60.0,52.3,96,68,40,30.22,30.05,10,5,18,0.00
2013-7-18,91.0,78.2,65.8,65.1,62.1,59.1,91,62,35,30.06,29.77,12,7,18,0.00
2013-7-19,95.7,77.1,64.4,68.7,63.1,58.0,94,67,30,29.86,29.71,11,4,14,0.52
2013-7-20,87.7,74.2,62.1,66.9,64.4,60.7,96,74,41,29.85,29.72,12,3,14,0.01
2013-7-21,88.6,73.1,58.3,67.7,62.8,55.7,94,73,41,29.84,29.67,12,3,18,0.00
2013-7-22,97.2,82.1,67.5,69.3,60.9,51.4,95,55,22,29.71,29.63,13,5,18,0.00
2013-7-23,90.1,82.6,68.6,66.2,63.3,59.5,85,54,39,29.88,29.74,10,6,14,0.00
2013-7-24,89.5,74.0,59.8,63.9,60.8,54.9,96,68,31,30.01,29.87,9,2,14,0.00
2013-7-25,82.9,68.4,62.1,68.0,63.4,58.7,96,85,51,30.00,29.82,9,3,18,0.94
2013-7-26,79.2,67.4,60.5,66.9,62.3,59.4,98,85,55,30.10,29.98,7,2,9,0.01
2013-7-27,67.4,62.8,57.9,62.0,57.0,54.1,93,82,67,30.01,29.89,17,8,22,0.00
2013-7-28,62.2,58.6,55.0,61.6,57.3,53.3,98,96,83,30.01,29.89,10,6,12,0.11
2013-7-29,76.7,67.8,62.0,68.2,64.5,61.4,99,90,72,29.94,29.84,6,2,9,0.01
2013-7-30,84.6,72.9,62.2,68.2,65.2,60.7,98,79,51,30.01,29.92,4,1,9,0.00
2013-7-31,86.3,74.1,61.5,72.9,66.0,60.1,97,77,57,30.10,29.94,12,4,14,0.01
2013-8-1,89.8,76.5,63.8,70.4,64.8,60.1,93,69,48,30.05,29.67,13,6,21,0.00
2013-8-2,88.6,75.7,63.0,70.0,65.9,59.7,92,73,50,29.81,29.71,14,6,14,0.00
2013-8-3,71.9,69.2,67.1,69.3,66.6,64.2,98,91,83,30.04,29.81,13,6,16,0.00
2013-8-4,83.4,72.2,65.9,71.4,67.6,65.0,98,87,62,30.04,29.84,7,3,11,0.04
2013-8-5,86.5,73.6,62.9,75.2,69.2,61.1,96,87,66,29.89,29.72,8,3,11,0.03
2013-8-6,84.0,73.9,62.8,72.6,67.8,61.0,98,82,61,29.83,29.71,9,2,14,0.00
2013-8-7,79.2,70.0,59.5,67.4,61.9,56.8,97,77,54,29.91,29.77,9,3,11,0.06
2013-8-8,72.3,67.3,63.5,64.4,62.2,59.0,97,85,64,29.99,29.84,6,2,9,0.46
2013-8-9,80.0,68.4,56.0,65.2,59.5,54.9,98,76,47,30.10,29.97,7,2,11,0.00
2013-8-10,79.6,68.3,53.3,62.2,58.6,51.9,97,73,52,30.12,29.96,10,4,19,0.00
2013-8-11,83.6,71.7,62.8,69.3,64.7,60.5,93,80,58,30.03,29.85,6,3,11,0.00
2013-8-12,83.4,71.8,61.9,67.0,64.0,60.7,96,78,54,29.98,29.89,8,3,13,0.00
2013-8-13,79.7,70.4,58.5,66.9,62.4,56.2,97,77,53,30.04,29.95,11,3,16,0.01
2013-8-14,79.4,70.2,62.2,65.6,62.6,59.9,94,78,52,30.06,29.90,7,4,13,0.00
2013-8-15,82.8,66.9,54.9,65.9,59.1,52.3,95,78,40,30.02,29.88,10,2,17,0.27
2013-8-16,81.8,67.9,56.3,67.3,62.5,54.9,98,84,55,30.04,29.95,9,3,12,0.00
2013-8-17,76.0,69.2,64.4,67.8,65.2,62.7,96,88,75,30.01,29.91,9,4,14,0.00
2013-8-18,81.7,69.3,63.6,66.9,63.8,61.5,95,84,60,29.97,29.86,10,5,15,0.00
2013-8-19,88.8,74.3,61.5,68.9,64.8,60.1,96,75,49,29.95,29.80,10,4,16,0.00
2013-8-20,93.0,76.6,58.5,66.1,63.0,56.7,96,67,37,29.85,29.75,10,4,14,0.00
2013-8-21,96.8,80.1,67.5,65.7,62.3,58.0,82,58,28,29.81,29.72,10,5,14,0.00
2013-8-22,91.0,78.3,58.6,66.7,61.1,55.1,91,58,35,29.88,29.78,9,3,14,0.00
2013-8-23,91.2,76.6,65.3,66.7,63.2,56.7,92,67,37,29.88,29.72,9,3,15,0.01
2013-8-24,95.9,80.8,64.4,62.0,58.9,55.2,81,51,26,29.84,29.76,12,7,18,0.00
2013-8-25,96.6,83.5,70.1,61.8,59.5,54.7,72,47,25,29.89,29.81,12,8,18,0.00
2013-8-26,98.1,83.6,71.1,62.0,59.4,53.0,69,47,23,29.89,29.78,11,7,21,0.00
2013-8-27,97.7,81.9,65.3,60.8,57.4,49.2,77,47,20,29.83,29.74,9,5,21,0.00
2013-8-28,95.5,78.9,60.3,65.1,58.6,52.7,87,54,24,29.85,29.78,8,3,11,0.00
2013-8-29,100.6,81.8,60.8,65.2,57.2,43.7,89,51,15,29.84,29.75,7,3,11,0.00
2013-8-30,104.7,82.3,57.7,67.8,54.6,45.3,88,46,15,29.84,29.72,7,2,17,0.00
2013-8-31,95.8,79.9,66.6,67.7,62.4,50.2,90,60,27,29.83,29.65,10,3,13,0.02
2013-9-1,86.6,74.4,57.6,61.0,52.5,46.0,84,51,25,29.97,29.71,12,3,15,0.00
2013-9-2,89.3,70.2,50.0,55.7,50.7,44.5,88,55,27,30.02,29.89,8,3,12,0.00
2013-9-3,93.9,77.4,63.1,59.1,55.9,51.8,73,51,30,29.94,29.82,12,6,17,0.00
2013-9-4,97.8,80.1,66.5,57.7,54.8,50.9,62,45,21,29.92,29.84,9,5,15,0.00
2013-9-5,97.7,80.4,66.0,57.3,53.1,49.3,62,42,20,29.95,29.86,11,4,15,0.00
2013-9-6,101.1,82.3,61.2,52.5,46.8,40.9,57,33,13,29.90,29.75,8,4,13,0.00
2013-9-7,102.5,81.9,58.7,53.4,48.9,43.5,70,37,14,29.83,29.72,7,2,10,0.00
2013-9-8,99.0,82.3,57.5,55.6,51.1,45.5,77,38,17,29.77,29.62,10,4,16,0.00
2013-9-9,96.1,82.8,68.6,55.5,52.8,44.3,57,37,19,29.68,29.56,11,6,15,0.00
2013-9-10,92.8,75.5,57.1,65.3,57.9,52.9,91,58,28,29.92,29.65,8,3,14,0.05
2013-9-11,86.0,70.5,63.2,69.1,63.4,60.0,96,80,45,30.00,29.91,8,1,14,1.16
2013-9-12,66.6,65.0,63.8,66.0,64.1,62.9,98,97,95,30.13,30.05,10,5,12,1.56
2013-9-13,64.9,61.3,56.2,63.7,58.6,55.0,98,91,78,30.11,29.94,11,5,17,1.06
2013-9-14,81.3,66.9,58.5,68.1,60.4,54.4,89,80,60,29.96,29.72,11,6,17,0.00
2013-9-15,68.5,62.9,59.5,63.3,59.5,55.6,97,89,79,30.15,29.76,10,3,17,0.04
2013-9-16,59.6,56.5,54.7,56.0,54.8,53.3,97,94,87,30.20,30.08,8,3,12,0.02
2013-9-17,86.3,70.0,56.9,67.8,62.0,56.1,99,79,45,30.09,29.68,9,5,16,0.00
2013-9-18,91.8,75.7,63.8,65.8,62.8,56.7,92,68,33,29.69,29.52,9,6,16,0.00
2013-9-19,75.7,64.7,50.5,62.7,54.7,47.4,93,72,44,30.04,29.59,7,2,15,0.00
2013-9-20,64.7,51.7,45.7,52.0,47.9,43.8,97,88,57,30.12,30.04,2,0,4,0.00
2013-9-21,82.9,66.4,49.5,58.0,52.4,44.5,88,63,37,29.97,29.71,8,4,13,0.00
2013-9-22,86.6,69.1,54.1,57.7,51.6,46.4,78,57,31,29.72,29.49,13,8,28,0.00
2013-9-23,73.2,64.1,54.8,53.6,49.3,46.6,79,60,44,29.79,29.31,14,6,20,0.00
2013-9-24,79.4,62.3,50.0,50.7,44.1,36.1,88,58,22,30.00,29.79,5,2,20,0.00
2013-9-25,87.8,66.9,47.8,51.5,46.1,41.0,90,54,20,29.85,29.45,17,8,24,0.00
2013-9-26,89.8,70.6,50.9,57.1,49.6,44.1,83,50,23,29.54,29.44,9,3,18,0.00
2013-9-27,75.3,67.4,49.6,65.5,57.8,46.8,93,73,51,29.74,29.46,11,6,20,0.36
2013-9-28,71.6,54.6,42.2,47.0,41.6,35.5,94,67,27,30.08,29.74,4,1,20,0.00
2013-9-29,77.9,60.0,39.9,46.4,41.3,35.4,85,54,22,30.08,29.79,10,5,17,0.00
2013-9-30,81.6,62.2,41.0,52.8,46.6,38.6,96,63,24,29.80,29.65,12,3,14,0.00
2013-10-1,74.8,60.6,47.0,54.2,48.8,41.9,94,68,43,29.90,29.70,11,4,18,0.00
2013-10-2,78.6,61.3,45.0,64.2,54.6,43.7,97,81,55,29.86,29.70,6,1,9,0.00
2013-10-3,70.1,57.9,53.9,60.7,55.9,51.6,98,93,72,29.70,29.59,8,1,8,0.00
2013-10-4,58.5,52.7,39.0,57.9,45.5,29.9,98,78,49,30.07,29.54,8,3,13,0.01
2013-10-5,57.8,44.9,34.2,31.5,28.0,22.1,79,54,26,30.16,30.06,6,3,12,0.00
2013-10-6,70.6,52.5,38.1,38.2,32.9,25.5,82,50,29,30.15,30.07,5,2,11,0.00
2013-10-7,79.6,56.9,33.8,44.5,37.3,31.4,94,56,20,30.15,29.90,9,4,13,0.00
2013-10-8,83.2,64.5,47.4,40.8,36.4,29.3,70,40,15,29.90,29.62,14,7,19,0.00
2013-10-9,82.3,63.6,48.3,45.4,40.6,35.6,65,45,23,29.77,29.64,9,4,16,0.00
2013-10-10,83.5,63.3,47.8,52.4,47.1,41.8,93,60,25,29.77,29.42,24,8,32,0.31
2013-10-11,54.7,53.5,52.1,51.3,50.2,44.8,92,88,76,29.53,29.50,9,6,17,0.00
2013-10-13,65.7,60.3,46.0,54.4,44.2,37.7,84,57,41,30.32,30.04,16,9,23,0.00
2013-10-14,71.9,57.1,42.2,61.2,50.4,35.5,96,80,29,30.04,29.61,20,7,28,0.28
2013-10-15,53.7,42.5,29.2,35.8,32.6,25.9,90,69,47,30.28,29.97,5,2,23,0.00
2013-10-16,55.9,40.3,27.6,36.6,31.5,25.3,93,74,43,30.28,30.05,8,3,11,0.00
2013-10-17,59.7,43.5,30.3,39.1,33.4,27.3,91,70,41,30.14,30.03,7,2,8,0.00
2013-10-18,47.2,37.3,31.3,41.9,34.0,28.2,96,88,70,30.23,30.13,6,1,11,0.32
2013-10-19,66.8,45.1,29.5,40.1,32.9,26.9,91,68,29,30.19,29.92,8,2,11,0.00
2013-10-20,60.4,45.8,32.0,42.3,36.1,28.9,91,71,48,30.11,29.82,7,2,10,0.00
2013-10-21,63.2,45.1,28.5,40.1,33.5,26.7,96,69,33,30.17,30.05,3,1,9,0.00
2013-10-22,69.6,53.9,38.3,42.2,39.5,34.2,86,61,35,30.10,30.02,4,1,6,0.00
2013-10-23,71.5,48.3,31.3,44.9,35.3,29.4,95,68,26,30.23,30.05,5,1,9,0.00
2013-10-24,49.9,39.0,26.2,39.9,34.0,24.3,97,83,65,30.42,30.23,6,2,10,0.00
2013-10-25,62.9,46.5,35.1,42.6,37.0,31.3,87,71,46,30.42,30.08,11,5,15,0.00
2013-10-26,46.3,41.7,36.7,42.5,37.3,33.6,95,84,77,30.28,30.09,4,1,11,0.00
2013-10-28,43.9,41.6,40.6,39.6,39.0,37.2,94,90,77,30.06,30.05,5,3,12,0.03
2013-10-29,43.3,39.8,37.6,42.0,38.6,36.6,97,95,93,30.07,29.98,3,2,12,0.04
2013-10-30,57.7,41.7,30.8,46.7,38.1,28.5,97,88,58,30.06,29.81,4,1,8,0.01
2013-10-31,62.3,46.8,31.9,39.0,32.5,26.2,96,64,26,29.83,29.72,5,2,10,0.00
2013-11-1,55.9,44.6,32.7,36.8,30.6,21.8,79,59,32,30.20,29.81,4,2,9,0.00
2013-11-2,60.5,42.5,23.4,31.2,25.9,19.4,88,57,27,30.32,29.90,11,5,14,0.00
2013-11-3,73.7,49.8,31.0,36.9,31.3,25.1,85,53,19,29.89,29.47,15,5,20,0.00
2013-11-4,52.7,41.4,28.8,37.9,31.9,23.1,90,71,43,30.11,29.60,6,2,16,0.00
2013-11-5,39.3,35.7,28.1,38.3,33.8,24.9,96,93,86,30.25,29.94,9,3,11,0.35
2013-11-6,55.0,35.4,21.7,32.5,26.6,19.7,93,74,35,30.42,30.23,9,2,11,0.01
2013-11-7,57.9,40.7,25.6,36.9,30.4,22.8,91,70,38,30.54,30.17,8,3,10,0.00
2013-11-8,72.6,47.5,33.4,41.7,33.5,29.3,86,63,25,30.16,29.78,9,2,12,0.00
2013-11-9,61.4,43.8,27.4,36.7,32.3,23.6,90,67,36,30.34,29.98,6,2,12,0.00
2013-11-10,59.1,43.3,25.1,46.8,37.3,22.2,94,80,60,30.37,30.18,11,4,14,0.00
2013-11-11,44.2,33.5,26.7,42.3,30.8,21.0,96,90,78,30.81,30.15,7,4,11,0.01
2013-11-12,46.6,31.5,14.7,31.7,24.9,12.5,93,77,55,30.92,30.58,7,3,10,0.00
2013-11-13,65.7,44.3,27.8,37.3,31.5,24.7,89,65,31,30.58,29.96,11,6,15,0.00
2013-11-14,57.0,37.8,29.0,38.5,31.6,26.1,93,80,49,29.96,29.91,3,1,8,0.00
2013-11-15,64.7,44.6,31.6,40.7,33.4,29.3,94,69,28,29.93,29.44,13,5,18,0.00
2013-11-16,61.9,47.6,32.6,35.2,31.8,26.9,83,57,30,29.45,29.29,11,3,12,0.00
2013-11-17,54.6,40.9,20.0,34.8,19.3,7.5,81,48,15,30.18,29.34,7,2,20,0.00
2013-11-18,60.3,38.6,19.5,20.0,16.7,13.0,80,48,18,30.31,30.17,12,5,18,0.00
2013-11-19,55.7,39.4,28.1,31.9,25.6,18.9,81,59,38,30.17,29.76,10,5,15,0.00
2013-11-20,67.5,44.3,28.5,37.5,30.2,23.4,87,62,27,29.92,29.77,4,1,10,0.00
2013-11-21,42.2,23.3,17.0,34.1,16.7,11.6,85,76,67,30.80,29.92,8,4,20,0.00
2013-11-22,33.0,24.1,15.1,20.6,14.0,8.8,83,67,37,30.88,30.76,3,1,20,0.01
2013-11-23,33.2,25.8,19.9,22.0,16.8,12.8,83,69,48,30.90,30.73,5,2,7,0.00
2013-11-24,40.7,30.8,21.1,29.1,23.5,16.7,85,75,57,30.72,30.15,16,9,21,0.00
2013-11-25,47.8,28.7,14.6,29.3,20.1,11.7,94,74,29,30.42,30.13,6,1,11,0.00
2013-11-26,42.4,25.3,9.2,26.9,15.7,4.6,91,70,41,30.55,30.42,5,1,10,0.00
2013-11-27,59.1,33.6,11.1,29.6,20.5,7.3,90,64,26,30.55,30.13,12,4,19,0.00
2013-11-28,44.4,30.5,19.9,28.2,22.1,16.7,90,73,45,30.45,30.20,6,2,8,0.00
2013-11-29,46.2,28.3,18.7,32.2,23.1,15.7,89,81,57,30.44,30.20,6,3,9,0.00
2013-11-30,66.4,38.6,23.5,32.6,23.8,17.6,86,62,22,30.28,30.15,5,1,8,0.00
2013-12-1,63.4,37.1,21.8,32.8,22.9,17.1,87,62,24,30.21,29.90,5,1,7,0.00
2013-12-2,71.3,45.4,28.2,32.4,26.1,21.5,77,51,20,29.90,29.57,11,2,15,0.00
2013-12-3,63.8,39.0,24.5,33.9,26.9,19.1,89,66,29,29.77,29.46,12,4,15,0.00
2013-12-4,24.8,18.0,9.4,19.9,9.3,1.9,89,70,46,30.35,29.75,10,4,15,0.00
2013-12-5,13.9,8.6,-1.5,2.6,-2.2,-7.8,79,62,49,30.57,30.35,6,2,14,0.00
2013-12-6,14.6,7.5,-4.4,-2.6,-5.3,-10.4,75,56,42,30.80,30.57,5,2,10,0.00
2013-12-7,10.2,6.4,-4.8,5.6,-1.7,-10.9,85,69,55,30.80,30.34,9,4,18,0.00
2013-12-8,15.0,7.7,-5.6,10.1,3.8,-9.7,87,84,77,30.44,30.14,6,2,18,0.00
2013-12-9,23.4,8.6,-7.6,12.0,1.1,-12.1,85,72,51,30.59,30.43,11,3,15,0.02
2013-12-10,43.4,23.8,7.2,19.6,11.0,0.1,85,61,26,30.46,30.15,13,3,17,0.00
2013-12-11,33.0,21.6,5.3,19.2,14.8,1.8,91,76,54,30.73,30.40,8,3,11,0.00
2013-12-12,50.0,24.9,12.7,19.9,14.0,8.2,83,65,30,30.57,30.08,6,2,10,0.00
2013-12-13,49.0,28.2,10.9,27.0,18.0,5.9,88,68,37,30.21,29.88,3,1,8,0.00
2013-12-14,50.3,29.9,17.7,31.2,19.6,10.9,92,69,34,30.36,30.21,4,1,6,0.00
2013-12-15,62.1,35.9,20.8,24.4,18.4,12.8,78,54,21,30.31,30.12,6,1,11,0.00
2013-12-16,63.8,39.0,25.2,24.2,18.3,11.0,70,48,18,30.26,30.12,4,1,7,0.00
2013-12-17,57.4,37.6,18.4,26.0,19.1,12.1,79,51,25,30.44,30.14,8,3,12,0.00
2013-12-18,75.3,45.1,26.0,25.9,17.4,9.0,60,39,10,30.14,29.72,8,2,11,0.00
2013-12-19,45.0,33.3,16.6,29.2,23.0,11.5,86,67,45,29.98,29.63,9,3,14,0.00
2013-12-20,31.2,18.0,11.3,12.9,8.3,2.3,82,66,44,30.10,29.95,4,1,12,0.00
2013-12-21,37.0,21.7,6.9,18.7,11.7,2.4,85,67,44,30.04,29.80,4,1,12,0.00
2013-12-22,41.2,22.2,7.3,21.9,12.2,3.2,88,68,34,30.38,30.04,5,1,8,0.00
2013-12-23,27.8,19.7,14.9,17.3,13.7,10.7,87,78,63,30.65,30.38,10,4,18,0.00
2013-12-24,59.9,42.1,27.5,33.0,30.7,24.4,88,67,31,30.41,30.12,4,2,6,0.00
2013-12-25,47.6,29.5,16.0,25.7,18.1,7.7,92,67,33,30.50,30.38,5,1,7,0.00
2013-12-26,57.3,33.5,18.5,19.7,15.1,9.6,76,52,20,30.40,30.27,8,2,9,0.00
2013-12-27,64.7,38.5,16.6,20.7,14.0,9.7,81,44,13,30.40,30.14,14,5,19,0.00
2013-12-28,68.6,35.5,17.2,25.8,15.8,8.0,72,50,13,30.27,29.81,8,4,13,0.00
2013-12-29,31.0,18.6,11.6,12.4,6.2,3.3,75,59,38,30.47,30.25,7,3,16,0.00
2013-12-30,51.9,31.0,16.7,25.0,16.6,7.2,85,58,31,30.36,30.18,11,3,16,0.00
2013-12-31,62.2,38.1,22.8,26.3,19.3,12.5,72,50,23,30.33,30.00,9,3,11,0.00
2014-1-1,25.5,21.0,9.2,19.8,16.0,5.9,90,81,66,30.53,29.97,5,2,9,0.00
2014-1-2,49.2,27.7,7.5,28.4,17.3,4.4,92,70,31,30.53,30.26,6,2,8,0.01